CW5689 Weather Reports


Display with metric or nautical units.
time (UTC)temp
F
wind
direction
speed
MPH
gust
MPH
rain 1hr
in
rain 24hr
in
rain mn
in
humidity
%
barometer
mb
20200330234510 52 47 4.0 0.0 0.00 0.01 0.01 52 1020.0
20200330234010 52 46 5.0 0.0 0.00 0.01 0.01 50 1020.1
20200330233510 52 45 6.0 0.0 0.00 0.01 0.01 50 1020.2
20200330233011 53 49 3.0 0.0 0.00 0.01 0.01 51 1020.2
20200330232510 53 57 4.0 0.0 0.00 0.01 0.01 48 1020.2
20200330232010 53 41 3.0 0.0 0.00 0.01 0.01 50 1020.3
20200330231510 53 24 2.0 0.0 0.00 0.01 0.01 51 1020.2
20200330231010 53 48 4.0 0.0 0.00 0.01 0.01 50 1020.2
20200330230510 53 46 6.0 0.0 0.00 0.01 0.01 50 1020.3
20200330230011 53 39 4.0 0.0 0.00 0.01 0.01 48 1020.3
20200330225515 53 15 2.0 0.0 0.00 0.01 0.01 49 1020.3
20200330225010 53 16 3.0 0.0 0.00 0.01 0.01 51 1020.4
20200330224510 54 16 2.0 0.0 0.00 0.01 0.01 51 1020.4
20200330224010 54 16 3.0 0.0 0.00 0.01 0.01 47 1020.4
20200330223510 54 16 4.0 0.0 0.00 0.01 0.01 49 1020.5
20200330223010 54 24 4.0 0.0 0.00 0.01 0.01 47 1020.5
20200330222510 54 32 2.0 0.0 0.00 0.01 0.01 49 1020.5
20200330222010 54 48 4.0 0.0 0.00 0.01 0.01 47 1020.6
20200330221510 54 24 2.0 0.0 0.00 0.01 0.01 46 1020.6
20200330221011 55 14 3.0 0.0 0.00 0.01 0.01 47 1020.6
20200330220510 55 56 0.0 0.0 0.00 0.01 0.01 45 1020.7
20200330220010 55 59 4.0 0.0 0.00 0.01 0.01 45 1020.7
20200330215510 55 47 1.0 0.0 0.00 0.01 0.01 43 1020.7
20200330215010 55 55 2.0 0.0 0.00 0.01 0.01 45 1020.8
20200330214510 55 51 2.0 0.0 0.00 0.01 0.01 45 1020.9
20200330214011 55 51 4.0 0.0 0.00 0.01 0.01 45 1020.9
20200330213510 56 22 3.0 0.0 0.00 0.01 0.01 45 1020.9
20200330213010 56 10 4.0 0.0 0.00 0.01 0.01 43 1020.9
20200330212510 56 37 4.0 0.0 0.00 0.01 0.01 40 1021.0
20200330212011 56 37 3.0 0.0 0.00 0.01 0.01 40 1021.1
20200330211510 56 37 3.0 0.0 0.00 0.01 0.01 39 1021.1
20200330211010 55 37 3.0 0.0 0.00 0.01 0.01 42 1021.1
20200330210510 55 37 1.0 0.0 0.00 0.01 0.01 41 1021.2
20200330210010 55 37 1.0 0.0 0.00 0.01 0.01 39 1021.3
20200330205510 55 37 1.0 0.0 0.00 0.01 0.01 42 1021.3
20200330205010 55 37 1.0 0.0 0.00 0.01 0.01 42 1021.4
20200330204511 55 37 2.0 0.0 0.00 0.01 0.01 39 1021.4
20200330204010 55 38 2.0 0.0 0.00 0.02 0.01 41 1021.4
20200330203511 55 38 2.0 0.0 0.00 0.02 0.01 39 1021.5
20200330203011 56 38 2.0 0.0 0.00 0.02 0.01 40 1021.6
20200330202510 56 38 3.0 0.0 0.00 0.02 0.01 41 1021.7
20200330202010 56 34 3.0 0.0 0.00 0.02 0.01 41 1021.7
20200330201510 56 34 1.0 0.0 0.00 0.02 0.01 41 1021.8
20200330201010 56 34 3.0 0.0 0.00 0.02 0.01 43 1021.9
20200330200510 56 34 1.0 0.0 0.00 0.02 0.01 40 1022.0
20200330200014 57 34 3.0 0.0 0.00 0.02 0.01 37 1022.0
20200330195510 58 34 3.0 0.0 0.00 0.02 0.01 39 1022.1
20200330195010 58 33 2.0 0.0 0.00 0.02 0.01 39 1022.2
20200330194510 58 33 3.0 0.0 0.00 0.02 0.01 39 1022.2
20200330194010 58 27 2.0 0.0 0.00 0.02 0.01 37 1022.3
20200330193511 58 27 3.0 0.0 0.00 0.02 0.01 36 1022.4
20200330193010 58 27 1.0 0.0 0.00 0.02 0.01 37 1022.5
20200330192510 58 27 1.0 0.0 0.00 0.02 0.01 38 1022.6
20200330192011 58 21 1.0 0.0 0.00 0.02 0.01 39 1022.6
20200330191510 57 46 2.0 0.0 0.00 0.02 0.01 39 1022.7
20200330191010 56 46 1.0 0.0 0.00 0.02 0.01 41 1022.8
20200330190511 56 46 0.0 0.0 0.00 0.03 0.01 38 1022.9
20200330190010 56 46 1.0 0.0 0.00 0.03 0.01 36 1022.8
20200330185510 56 46 3.0 0.0 0.00 0.03 0.01 36 1022.8
20200330185010 56 46 2.0 0.0 0.00 0.03 0.01 36 1022.8
20200330184510 56 46 2.0 0.0 0.00 0.04 0.01 36 1022.8
20200330184010 56 46 3.0 0.0 0.00 0.04 0.01 38 1022.9
20200330183510 56 46 2.0 0.0 0.00 0.04 0.01 40 1022.9
20200330183011 55 46 2.0 0.0 0.00 0.04 0.01 38 1023.0
20200330182511 55 46 2.0 0.0 0.00 0.04 0.01 36 1023.1
20200330182010 55 46 2.0 0.0 0.00 0.04 0.01 35 1023.1
20200330181511 54 46 2.0 0.0 0.00 0.04 0.01 37 1023.2
20200330181010 54 46 2.0 0.0 0.00 0.04 0.01 43 1023.2
20200330180511 54 46 3.0 0.0 0.00 0.04 0.01 41 1023.2
20200330180011 54 46 4.0 0.0 0.00 0.04 0.01 42 1023.2
20200330175511 54 38 4.0 0.0 0.00 0.04 0.01 39 1023.2
20200330175011 55 9 3.0 0.0 0.00 0.04 0.01 40 1023.2
20200330174511 55 9 1.0 0.0 0.00 0.04 0.01 42 1023.3
20200330174010 55 9 3.0 0.0 0.00 0.04 0.01 41 1023.4
20200330173511 54 9 2.0 0.0 0.00 0.04 0.01 42 1023.4
20200330173011 54 14 2.0 0.0 0.00 0.04 0.01 46 1023.4
20200330172511 53 14 3.0 0.0 0.00 0.04 0.01 49 1023.4
20200330172011 52 17 3.0 0.0 0.00 0.04 0.01 45 1023.5
20200330171511 51 17 1.0 0.0 0.00 0.04 0.01 51 1023.5
20200330171011 50 17 1.0 0.0 0.00 0.04 0.01 57 1023.5
20200330170511 48 17 2.0 0.0 0.00 0.04 0.01 57 1023.6
20200330170011 48 17 1.0 0.0 0.00 0.04 0.01 62 1023.6
20200330165510 48 17 2.0 0.0 0.00 0.04 0.01 57 1023.6
20200330165011 47 17 1.0 0.0 0.00 0.04 0.01 61 1023.6
20200330164511 47 17 2.0 0.0 0.00 0.04 0.01 63 1023.6
20200330164011 46 17 2.0 0.0 0.00 0.04 0.01 62 1023.6
20200330163511 46 17 1.0 0.0 0.00 0.04 0.01 66 1023.6
20200330163010 45 17 1.0 0.0 0.00 0.04 0.01 69 1023.6
20200330162511 45 17 1.0 0.0 0.00 0.04 0.01 69 1023.6
20200330162010 45 17 1.0 0.0 0.00 0.04 0.01 66 1023.6
20200330161511 45 17 1.0 0.0 0.00 0.04 0.01 67 1023.6
20200330161011 45 17 1.0 0.0 0.00 0.04 0.01 69 1023.6
20200330160511 44 17 0.0 0.0 0.00 0.04 0.01 67 1023.5
20200330160011 44 17 0.0 0.0 0.00 0.04 0.01 69 1023.5
20200330155511 44 17 1.0 0.0 0.00 0.04 0.01 71 1023.5
20200330155011 44 17 1.0 0.0 0.00 0.04 0.01 73 1023.5
20200330154511 43 17 0.0 0.0 0.00 0.04 0.01 73 1023.5
20200330154011 44 17 1.0 0.0 0.00 0.04 0.01 72 1023.4
20200330153511 44 17 0.0 0.0 0.00 0.04 0.01 68 1023.4
20200330153011 44 17 1.0 0.0 0.00 0.04 0.01 72 1023.4
20200330152510 44 17 1.0 0.0 0.00 0.04 0.01 72 1023.4
20200330152011 43 17 1.0 0.0 0.00 0.04 0.01 72 1023.4
20200330151511 42 17 0.0 0.0 0.00 0.04 0.01 74 1023.4
20200330151011 42 17 1.0 0.0 0.00 0.04 0.01 77 1023.3
20200330150511 41 17 3.0 0.0 0.00 0.04 0.01 75 1023.3
20200330150011 40 17 1.0 0.0 0.00 0.04 0.01 77 1023.3
20200330145511 40 17 1.0 0.0 0.00 0.04 0.01 81 1023.3
20200330145011 40 17 2.0 0.0 0.00 0.04 0.01 82 1023.2
20200330144511 40 17 2.0 0.0 0.00 0.04 0.01 82 1023.2
20200330144010 40 17 1.0 0.0 0.00 0.04 0.01 83 1023.1
20200330143511 39 17 2.0 0.0 0.00 0.04 0.01 81 1023.0
20200330143010 39 17 1.0 0.0 0.00 0.04 0.01 85 1023.0
20200330142511 39 17 1.0 0.0 0.00 0.04 0.01 87 1023.1
20200330142012 38 17 1.0 0.0 0.00 0.04 0.01 89 1023.1
20200330141510 37 17 1.0 0.0 0.01 0.04 0.01 89 1023.1
20200330141010 36 17 1.0 0.0 0.01 0.04 0.01 89 1023.0
20200330140511 36 17 0.0 0.0 0.01 0.04 0.01 89 1022.9
20200330140011 35 17 0.0 0.0 0.01 0.04 0.01 90 1022.9
20200330135511 35 17 1.0 0.0 0.01 0.04 0.01 90 1022.8
20200330135011 35 17 1.0 0.0 0.01 0.04 0.01 90 1022.7
20200330134511 35 15 2.0 0.0 0.01 0.04 0.01 91 1022.7
20200330134011 35 15 1.0 0.0 0.01 0.04 0.01 92 1022.6
20200330133511 34 15 2.0 0.0 0.01 0.04 0.01 92 1022.6
20200330133011 34 15 0.0 0.0 0.01 0.04 0.01 91 1022.6
20200330132511 33 15 2.0 0.0 0.01 0.04 0.01 91 1022.5
20200330132011 32 15 0.0 0.0 0.01 0.04 0.01 91 1022.6
20200330131511 32 15 0.0 0.0 0.00 0.03 0.00 91 1022.5
20200330131011 31 15 0.0 0.0 0.00 0.03 0.00 91 1022.4
20200330130511 31 15 0.0 0.0 0.00 0.04 0.00 91 1022.4
20200330130011 31 15 0.0 0.0 0.00 0.04 0.00 91 1022.4
20200330125511 30 15 0.0 0.0 0.00 0.04 0.00 91 1022.3
20200330125011 30 15 0.0 0.0 0.00 0.04 0.00 91 1022.3
20200330124511 30 15 0.0 0.0 0.00 0.04 0.00 91 1022.2
20200330124011 30 15 0.0 0.0 0.00 0.04 0.00 91 1022.1
20200330123511 30 15 0.0 0.0 0.00 0.04 0.00 91 1022.0
20200330123011 30 15 0.0 0.0 0.00 0.04 0.00 91 1022.0
20200330122511 30 15 1.0 0.0 0.00 0.04 0.00 91 1022.0
20200330122011 30 15 1.0 0.0 0.00 0.04 0.00 91 1021.9
20200330121511 29 15 0.0 0.0 0.00 0.04 0.00 91 1021.8
20200330121011 29 15 0.0 0.0 0.00 0.04 0.00 91 1021.7
20200330120518 29 15 0.0 0.0 0.00 0.04 0.00 91 1021.6
20200330120011 29 15 0.0 0.0 0.00 0.04 0.00 91 1021.6
20200330115511 29 15 1.0 0.0 0.00 0.04 0.00 91 1021.5
20200330115011 29 15 0.0 0.0 0.00 0.04 0.00 91 1021.4
20200330114511 29 15 1.0 0.0 0.00 0.04 0.00 91 1021.3
20200330114011 29 15 1.0 0.0 0.00 0.04 0.00 91 1021.3
20200330113511 29 15 1.0 0.0 0.00 0.04 0.00 91 1021.2
20200330113011 29 15 1.0 0.0 0.00 0.04 0.00 91 1021.2
20200330112511 29 15 1.0 0.0 0.00 0.04 0.00 90 1021.0
20200330112011 29 15 0.0 0.0 0.00 0.04 0.00 90 1021.0
20200330111512 29 15 1.0 0.0 0.00 0.04 0.00 90 1020.9
20200330111011 30 15 2.0 0.0 0.00 0.04 0.00 91 1020.9
20200330110511 30 15 1.0 0.0 0.00 0.04 0.00 91 1020.9
20200330110011 30 15 0.0 0.0 0.00 0.04 0.00 91 1020.8
20200330105511 30 15 0.0 0.0 0.00 0.05 0.00 91 1020.8
20200330105011 30 15 0.0 0.0 0.00 0.05 0.00 91 1020.8
20200330104511 30 15 1.0 0.0 0.00 0.05 0.00 91 1020.7
20200330104032 30 15 0.0 0.0 0.00 0.05 0.00 91 1020.7
20200330103511 30 15 0.0 0.0 0.00 0.05 0.00 91 1020.7
20200330103011 30 15 0.0 0.0 0.00 0.05 0.00 91 1020.6
20200330102511 30 15 0.0 0.0 0.00 0.06 0.00 91 1020.5
20200330102011 30 15 1.0 0.0 0.00 0.06 0.00 90 1020.5
20200330101511 30 15 0.0 0.0 0.00 0.07 0.00 90 1020.3
20200330101011 30 15 0.0 0.0 0.00 0.07 0.00 91 1020.3
20200330100511 30 15 1.0 0.0 0.00 0.08 0.00 91 1020.2
20200330100012 30 15 1.0 0.0 0.00 0.09 0.00 91 1020.1
20200330095511 30 15 1.0 0.0 0.00 0.11 0.00 91 1020.0
20200330095011 30 15 0.0 0.0 0.00 0.11 0.00 91 1020.0
20200330094511 30 15 0.0 0.0 0.00 0.13 0.00 91 1019.9
20200330094011 30 15 0.0 0.0 0.00 0.13 0.00 90 1019.9
20200330093511 30 15 0.0 0.0 0.00 0.14 0.00 90 1019.8
20200330093011 30 15 0.0 0.0 0.00 0.15 0.00 91 1019.8
20200330092511 31 15 1.0 0.0 0.00 0.15 0.00 91 1019.8
20200330090511 31 15 2.0 0.0 0.00 0.15 0.00 90 1019.6
20200330090011 31 15 2.0 0.0 0.00 0.15 0.00 90 1019.5
20200330085512 31 15 1.0 0.0 0.00 0.15 0.00 90 1019.4
20200330085011 31 15 2.0 0.0 0.00 0.16 0.00 90 1019.2
20200330084511 31 15 1.0 0.0 0.00 0.16 0.00 90 1019.1
20200330084011 31 15 1.0 0.0 0.00 0.17 0.00 90 1019.0
20200330083511 31 15 1.0 0.0 0.00 0.18 0.00 90 1019.0
20200330083011 32 15 1.0 0.0 0.00 0.19 0.00 90 1018.9
20200330082511 32 15 1.0 0.0 0.00 0.19 0.00 90 1018.9
20200330082011 32 15 0.0 0.0 0.00 0.20 0.00 90 1018.8
20200330081511 32 15 0.0 0.0 0.00 0.21 0.00 90 1018.8
20200330081011 32 15 1.0 0.0 0.00 0.21 0.00 90 1018.7
20200330080511 32 15 0.0 0.0 0.00 0.22 0.00 90 1018.7
20200330080011 32 15 1.0 0.0 0.00 0.22 0.00 90 1018.6
20200330075511 32 15 0.0 0.0 0.00 0.23 0.00 90 1018.6
20200330075011 32 15 0.0 0.0 0.00 0.23 0.00 90 1018.5
20200330074511 32 15 0.0 0.0 0.00 0.24 0.00 90 1018.5
20200330074011 32 15 1.0 0.0 0.00 0.25 0.00 90 1018.4
20200330073512 32 15 2.0 0.0 0.00 0.26 0.00 90 1018.4
20200330073011 33 15 1.0 0.0 0.00 0.27 0.00 90 1018.4
20200330072511 33 15 1.0 0.0 0.00 0.28 0.00 90 1018.3
20200330072011 33 15 0.0 0.0 0.00 0.29 0.00 90 1018.3
20200330071511 33 15 0.0 0.0 0.00 0.29 0.00 90 1018.1
20200330071011 33 15 0.0 0.0 0.00 0.29 0.00 90 1018.1
20200330070511 34 15 2.0 0.0 0.00 0.29 0.00 90 1018.1
20200330070011 34 15 1.0 0.0 0.00 0.29 0.00 90 1018.0
20200330065511 34 15 0.0 0.0 0.00 0.29 0.00 90 1017.9
20200330065012 34 15 0.0 0.0 0.00 0.29 0.00 90 1017.8
20200330064511 34 15 2.0 0.0 0.00 0.29 0.00 90 1017.7
20200330064011 34 15 1.0 0.0 0.00 0.29 0.00 90 1017.6
20200330063510 35 15 3.0 0.0 0.00 0.29 0.00 90 1017.5
20200330063010 35 15 2.0 0.0 0.00 0.29 0.00 90 1017.5
20200330062510 35 15 2.0 0.0 0.00 0.29 0.00 90 1017.4
20200330062010 35 15 0.0 0.0 0.00 0.29 0.00 90 1017.3
20200330061511 35 15 0.0 0.0 0.00 0.29 0.00 90 1017.4
20200330061010 36 15 1.0 0.0 0.00 0.29 0.00 90 1017.3
20200330060510 36 15 1.0 0.0 0.00 0.29 0.00 90 1017.3
20200330060010 36 15 2.0 0.0 0.00 0.29 0.00 90 1017.3
20200330055510 36 15 1.0 0.0 0.00 0.29 0.00 90 1017.3
20200330055010 36 15 0.0 0.0 0.00 0.29 0.00 90 1017.2
20200330054510 36 15 0.0 0.0 0.00 0.29 0.00 89 1017.0
20200330054010 36 15 1.0 0.0 0.00 0.29 0.00 89 1017.0
20200330053510 36 15 1.0 0.0 0.00 0.29 0.00 89 1017.0
20200330053010 37 15 2.0 0.0 0.00 0.29 0.00 89 1016.9
20200330052510 37 15 2.0 0.0 0.00 0.29 0.00 89 1016.9
20200330052010 37 15 2.0 0.0 0.00 0.29 0.00 89 1016.9
20200330051510 37 15 0.0 0.0 0.00 0.29 0.00 89 1016.9
20200330051010 38 15 0.0 0.0 0.00 0.29 0.00 89 1016.8
20200330050510 38 15 0.0 0.0 0.00 0.29 0.00 89 1016.8
20200330050010 38 15 1.0 0.0 0.00 0.29 0.00 89 1016.7
20200330045510 38 15 0.0 0.0 0.00 0.29 0.29 89 1016.6
20200330045010 38 15 0.0 0.0 0.00 0.29 0.29 89 1016.5
20200330044510 38 15 1.0 0.0 0.00 0.29 0.29 89 1016.6
20200330044010 38 15 2.0 0.0 0.00 0.29 0.29 89 1016.5
20200330043510 39 15 0.0 0.0 0.00 0.29 0.29 89 1016.5
20200330043011 39 15 1.0 0.0 0.00 0.29 0.29 89 1016.3
20200330042510 39 15 1.0 0.0 0.00 0.30 0.29 89 1016.3
20200330042010 39 15 1.0 0.0 0.00 0.30 0.29 89 1016.2
20200330041510 39 15 2.0 0.0 0.00 0.31 0.29 89 1016.2
20200330041010 39 15 0.0 0.0 0.00 0.31 0.29 89 1016.1
20200330040510 39 15 3.0 0.0 0.00 0.32 0.29 89 1016.1
20200330040010 40 15 0.0 0.0 0.00 0.32 0.29 89 1016.1
20200330035510 40 15 0.0 0.0 0.00 0.32 0.29 89 1016.1
20200330035010 40 15 0.0 0.0 0.00 0.32 0.29 89 1016.0
20200330034510 40 15 0.0 0.0 0.00 0.32 0.29 88 1016.0
20200330034010 40 15 3.0 0.0 0.00 0.32 0.29 88 1015.8
20200330033510 40 15 1.0 0.0 0.00 0.32 0.29 88 1015.8
20200330033010 40 15 1.0 0.0 0.00 0.32 0.29 88 1015.7
20200330032510 40 15 2.0 0.0 0.00 0.32 0.29 88 1015.7
20200330032010 40 15 1.0 0.0 0.00 0.32 0.29 88 1015.7
20200330031510 41 15 1.0 0.0 0.00 0.32 0.29 88 1015.6
20200330031010 41 15 2.0 0.0 0.00 0.32 0.29 88 1015.6
20200330030510 41 15 3.0 0.0 0.00 0.32 0.29 87 1015.5
20200330030010 41 15 3.0 0.0 0.00 0.32 0.29 87 1015.3
20200330025510 41 15 0.0 0.0 0.00 0.32 0.29 87 1015.2
20200330025010 41 15 0.0 0.0 0.00 0.32 0.29 87 1015.1
20200330024510 41 15 1.0 0.0 0.00 0.32 0.29 87 1015.0
20200330024010 41 15 0.0 0.0 0.00 0.32 0.29 86 1015.0
20200330023510 42 15 0.0 0.0 0.00 0.32 0.29 86 1014.9
20200330023010 42 15 0.0 0.0 0.00 0.32 0.29 86 1014.9
20200330022510 42 15 0.0 0.0 0.00 0.32 0.29 86 1014.8
20200330022010 42 15 1.0 0.0 0.00 0.32 0.29 86 1014.8
20200330021510 42 15 2.0 0.0 0.00 0.32 0.29 85 1014.8
20200330021010 42 15 1.0 0.0 0.00 0.32 0.29 85 1014.6
20200330020510 43 16 2.0 0.0 0.00 0.32 0.29 85 1014.5
20200330020010 43 17 1.0 0.0 0.00 0.32 0.29 84 1014.5
20200330015510 43 17 1.0 0.0 0.00 0.32 0.29 83 1014.4
20200330015010 43 17 0.0 0.0 0.00 0.32 0.29 83 1014.3
20200330014510 44 17 2.0 0.0 0.00 0.33 0.29 82 1014.2
20200330014011 44 17 1.0 0.0 0.00 0.35 0.29 82 1014.1
20200330013510 44 17 1.0 0.0 0.00 0.35 0.29 81 1014.1
20200330013010 44 17 2.0 0.0 0.00 0.36 0.29 81 1014.0
20200330012510 44 17 0.0 0.0 0.00 0.37 0.29 78 1013.9
20200330012010 45 17 1.0 0.0 0.00 0.39 0.29 78 1013.7
20200330011510 45 17 1.0 0.0 0.00 0.40 0.29 77 1013.7
20200330011010 45 17 1.0 0.0 0.00 0.43 0.29 77 1013.6
20200330010510 45 17 1.0 0.0 0.00 0.46 0.29 75 1013.4
20200330010010 46 17 0.0 0.0 0.00 0.50 0.29 74 1013.4
20200330005510 46 17 0.0 0.0 0.00 0.53 0.29 74 1013.3
20200330005010 46 17 1.0 0.0 0.00 0.55 0.29 73 1013.2
20200330004510 46 17 1.0 0.0 0.00 0.57 0.29 71 1013.0
20200330004010 46 17 1.0 0.0 0.00 0.59 0.29 70 1013.1
20200330003510 46 278 1.0 0.0 0.00 0.60 0.29 71 1012.8
20200330003010 46 283 1.0 0.0 0.00 0.63 0.29 71 1012.7
20200330002510 47 282 3.0 0.0 0.00 0.67 0.29 72 1012.6
20200330002010 47 290 2.0 0.0 0.00 0.69 0.29 71 1012.5
20200330001510 47 267 3.0 0.0 0.00 0.73 0.29 72 1012.5
20200330001010 47 278 4.0 0.0 0.00 0.74 0.29 71 1012.3
20200330000512 47 257 6.0 0.0 0.00 0.75 0.29 71 1012.3
20200330000011 47 283 4.0 0.0 0.00 0.76 0.29 73 1012.1
20200329235510 47 290 5.0 0.0 0.00 0.79 0.29 73 1012.0
20200329235011 47 280 3.0 0.0 0.00 0.79 0.29 73 1011.9